Weather in Ternivka

Ukraine / Zaporizhia Region     48°07′18″N   35°19′59″E
temp.,
°C
wind,
m/s
gust,
m/s
humid.,
%
clouds,
%
prec.,
mm/h
press.,
hPa
HPBL,
m
17 may, mon
mon1700:00+18ene4587100 2.1 100381
03:00+16ene3485100 2.1 100267
06:00+16ene47909 3.1 1001167
09:00+20ese567974 3.3 1002486
12:00+23s7975100 0.1 10031082
15:00+23s796798 0.1 10031248
18:00+23ssw57670 0.1 1004844
21:00+18s488585 0.3 1006151
18 may, tue
tue1800:00+16ssw488890 0.0 1006232
03:00+14s3592100 0.0 1007106
06:00+14s3590100 0.0 1007210
09:00+18s566973 0.0 1007709
12:00+21s675796 0.1 10061483
15:00+20ssw91061100 1.5 10061461
18:00+16s71187100 1.0 1006815
21:00+14sse5109214 2.0 1006404
19 may, wed
wed1900:00+14sse5109551 0.3 1005433
03:00+13s5109167 0.7 1005405
06:00+12sse48941 0.0 1006270
09:00+17s5769100 0.2 1006828
12:00+19s685632 0.8 10061709
15:00+17s7868100 1.3 10061164
18:00+16ssw4575100 0.2 1006914
21:00+13wsw7119031 0.5 1009496
20 may, thu
thu2000:00+12wsw7139175 0.0 1010521
03:00+12wsw7128548 0.0 1010771
06:00+11wsw512900 0.0 1012452
09:00+17wsw68652 0.0 1013835
12:00+21sw67525 0.0 10141594
15:00+23sw55449 0.0 10142035
18:00+22s344751 0.0 10131713
21:00+16sse4767100 0.0 1015119
21 may, fri
fri2100:00+14se3373100 0.0 101544
03:00+12ese47745 0.0 1015117
06:00+13e411815 0.0 1015246
09:00+20ese7106379 0.0 1014656
12:00+24ese79485 0.0 10141254
15:00+26se78404 0.0 10131458
18:00+25se69524 0.0 10121027
21:00+18ese410785 0.0 1013213